Find Kuiper-00151

NORAD ID: 65771 Int'l Des: 2025-217 Owner: KUIP Country: US Constellation: amazon-leo operational
LEOCIRCULAR

当前视图

正在加载3D地球...

About Kuiper-00151

Kuiper-00151 (NORAD 65771) is a amazon-leo constellation satellite launched Sep 25, 2025 by KUIP of US. It operates in LEO, CIRCULAR orbit with a mass of 490.00 kg.

关于 Kuiper-00151

正在加载描述...

即将过境

Passes for default location (London). Set your location on the main map for personalized predictions.

高度历史

Loading altitude history...

两行轨道根数

1 65771U 25217K 26200.19763668 .00001194 00000-0 18566-3 0 9993
2 65771 51.9011 181.5893 0000444 77.3948 282.7064 14.79921639 44356
Epoch: Jul 19, 2026 • Age: 11 hours

当前状态

高度 629.9 km
远地点 / 近地点 N/A
速度 7.55 km/s
星下点 22.11°N, 17.23°E
发射日期 Sep 25, 2025
运行时间 0.8 years
类型 internet

技术详情

分类 Payload
质量 490.00 kg
干质量 490.00 kg
总质量 490.00 kg
长度 1.80 m
直径 0.70 m
跨度 5.00 m
形状 Box + 2 pan
制造商 KUIP
平台类型 Kuiper
阶段状态 In Orbit
所有者/国家 KUIP/US

Most Searched